Location: Steznica
(49.3330°N, 22.3330°E)
Time: 22:44:59
(UTC+01:00)

ISS - Visible Passes

Search period start: 20 February 2024 00:00
Search period end: 01 March 2024 00:00
Orbit: 415 x 417 km, 51.6° (Epoch: 20 February)

Date Brightness Start Highest point End Pass type
(mag) Time Alt. Az. Time Alt. Az. Time Alt. Az.
20 Feb -0.7 03:46:24 12° SE 03:46:24 12° SE 03:47:23 10° ESE visible
20 Feb -3.3 05:19:19 14° SW 05:22:00 58° SSE 05:25:19 10° ENE visible
21 Feb -2.8 04:32:56 36° S 04:33:32 40° SSE 04:36:43 10° ENE visible
22 Feb -1.3 03:46:25 20° ESE 03:46:25 20° ESE 03:47:58 10° E visible
22 Feb -3.8 05:19:19 19° WSW 05:21:36 82° NNW 05:24:57 10° ENE visible
23 Feb -3.9 04:32:42 70° SSW 04:32:59 77° SSE 04:36:20 10° ENE visible
24 Feb -1.6 03:45:59 26° E 03:45:59 26° E 03:47:40 10° ENE visible
24 Feb -3.5 05:18:52 19° W 05:21:08 59° N 05:24:28 10° ENE visible
25 Feb -3.8 04:32:06 63° NW 04:32:24 69° NNW 04:35:46 10° ENE visible
26 Feb -1.8 03:45:15 29° ENE 03:45:15 29° ENE 03:47:02 10° ENE visible
26 Feb -3.4 05:18:08 16° WNW 05:20:35 55° N 05:23:54 10° E visible
27 Feb -3.5 04:31:15 48° NW 04:31:46 56° N 04:35:05 10° ENE visible
28 Feb -1.9 03:44:20 31° ENE 03:44:20 31° ENE 03:46:17 10° ENE visible
28 Feb -3.6 05:17:12 15° WNW 05:19:54 66° NNE 05:23:14 10° E visible
29 Feb -0.2 02:57:23 10° ENE 02:57:23 10° ENE 02:57:27 10° ENE visible
29 Feb -3.4 04:30:15 43° NW 04:31:02 58° N 04:34:21 10° E visible
